Manila, Philippines

10:38 AM +08 on September 25, 2017 (GMT +0800)
Ninoy Aquino International

Weather History for RPLL - January, 2013

Change the Weather History Date:

Tuesday, January 1, 2013

  Actual Average Record
Temperature  
Mean Temperature 80 °F -  
Max Temperature 84 °F 85 °F 89 °F (2017)
Min Temperature 76 °F 72 °F 69 °F (1998)
Cooling Degree Days 15    
Growing Degree Days 30 (Base 50)    
Moisture  
Dew Point 71 °F    
Average Humidity 75    
Maximum Humidity 84    
Minimum Humidity 64    
Precipitation  
Precipitation 0.08 in 0.01 in - ()
Sea Level Pressure  
Sea Level Pressure 29.88 in    
Wind  
Wind Speed 4 mph ()    
Max Wind Speed 12 mph    
Max Gust Speed -    
Visibility 5.7 miles    
Events Rain    
Averages and records for this station are not official NWS values.
T = Trace of Precipitation, MM = Missing Value Source: Averaged Metar Reports

Daily Weather History Graph

Daily Weather History Graph

Search for Another Location

Airport or City:

Trip Planner

Search our weather history database for the weather conditions in past years. The results will help you decide how hot, cold, wet, or windy it might be!

Date:

Astronomy

Jan. 01, 2013 Rise Set
Actual Time 6:20 AM +08 5:38 PM +08
Civil Twilight 5:57 AM +08 6:01 PM +08
Nautical Twilight 5:31 AM +08 6:28 PM +08
Astronomical Twilight 5:04 AM +08 6:54 PM +08
Moon 8:54 PM +08 (1/1) 8:49 AM +08 (1/1)
Length of Visible Light 12h 03m
Length of Day
11h 17m
Waning Gibbous, 87% of the Moon is Illuminated
Jan 1
Waning Gibbous
Jan 5
Last Quarter
Jan 12
New
Jan 19
First Quarter
Jan 27
Full

Hourly Weather History & Observations

Time (+08) Temp. Heat Index Dew Point Humidity Pressure Visibility Wind Dir Wind Speed Gust Speed Precip Events Conditions
12:00 AM 78.8 °F - 69.8 °F 74% 29.86 in 6.2 mi WNW 3.5 mph - N/A   Partly Cloudy
1:00 AM 77.0 °F - 69.8 °F 78% 29.86 in 1.9 mi SE 3.5 mph - N/A   Smoke
2:00 AM 77 °F - 71 °F 76% 29.85 in 6 mi Calm Calm - -   Haze
2:00 AM 77.0 °F - 69.8 °F 78% 29.83 in 5.6 mi Calm Calm - N/A   Partly Cloudy
3:00 AM 77.0 °F - 71.6 °F 83% 29.83 in 6.2 mi Calm Calm - N/A   Mostly Cloudy
4:00 AM 78.8 °F - 71.6 °F 78% 29.83 in 3.1 mi WNW 3.5 mph - N/A   Mostly Cloudy
5:00 AM 78 °F - 68 °F 65% 29.85 in 6 mi WNW 4.5 mph - -   Haze
5:00 AM 78.8 °F - 68.0 °F 69% 29.83 in 5.6 mi WNW 4.6 mph - N/A   Overcast
6:00 AM 78.8 °F - 68.0 °F 69% 29.86 in 5.6 mi Variable 2.3 mph - N/A   Overcast
7:00 AM 78.8 °F - 69.8 °F 74% 29.89 in 6.2 mi NW 4.6 mph - N/A   Overcast
8:00 AM 80 °F - 70 °F 64% 29.93 in 6 mi NNW 4.5 mph - -   Haze
8:00 AM 80.6 °F 83.9 °F 69.8 °F 70% 29.92 in 6.2 mi NNW 4.6 mph - N/A   Mostly Cloudy
9:00 AM 80.6 °F 83.9 °F 69.8 °F 70% 29.92 in 6.2 mi WSW 4.6 mph - N/A   Overcast
10:00 AM 80.6 °F 83.9 °F 69.8 °F 70% 29.92 in 6.2 mi West 5.8 mph - N/A   Mostly Cloudy
10:22 AM 78.8 °F - 71.6 °F 78% 29.92 in 5.6 mi SSW 3.5 mph - N/A Rain Light Rain Showers
11:00 AM 79 °F - 71 °F 70% 29.93 in 6 mi NNW 4.5 mph - - Rain Light Rain
11:00 AM 78.8 °F - 71.6 °F 78% 29.92 in 5.6 mi NNW 4.6 mph - N/A   Overcast
12:00 PM 80.6 °F 85.4 °F 73.4 °F 79% 29.89 in 6.2 mi NW 8.1 mph - N/A   Mostly Cloudy
1:00 PM 78.8 °F - 73.4 °F 83% 29.86 in 5.0 mi West 5.8 mph - N/A   Overcast
2:00 PM 80 °F - 74 °F 78% 29.86 in 6 mi ENE 6.7 mph - - Rain Light Rain
2:00 PM 80.6 °F 86.2 °F 75.2 °F 84% 29.86 in 6.2 mi ENE 8.1 mph - N/A Rain Light Rain
3:00 PM 82.4 °F 88.2 °F 73.4 °F 74% 29.86 in 6.2 mi NE 6.9 mph - N/A   Mostly Cloudy
4:00 PM 84.2 °F 89.6 °F 71.6 °F 66% 29.83 in 6.2 mi SE 6.9 mph - N/A   Mostly Cloudy
5:00 PM 83 °F - 73 °F 64% 29.86 in 6 mi East 8.9 mph - -   Haze
5:00 PM 82.4 °F 88.2 °F 73.4 °F 74% 29.86 in 6.2 mi East 9.2 mph - N/A   Mostly Cloudy
6:00 PM 80.6 °F 84.6 °F 71.6 °F 74% 29.86 in 5.0 mi ENE 11.5 mph - N/A Rain Light Rain Showers
7:00 PM 80.6 °F 84.6 °F 71.6 °F 74% 29.89 in 5.6 mi East 5.8 mph - N/A   Mostly Cloudy
8:00 PM 79 °F - 72 °F 75% 29.91 in 6 mi ENE 6.7 mph - -   Haze
8:00 PM 78.8 °F - 71.6 °F 78% 29.89 in 5.6 mi ENE 6.9 mph - N/A   Mostly Cloudy
9:00 PM 78.8 °F - 73.4 °F 83% 29.92 in 5.0 mi NE 9.2 mph - N/A Rain Light Rain Showers
10:00 PM 78.8 °F - 71.6 °F 78% 29.92 in 5.6 mi NNE 6.9 mph - N/A   Mostly Cloudy
11:00 PM 78 °F - 72 °F 78% 29.94 in 6 mi NE 4.5 mph - -   Haze
11:00 PM 78.8 °F - 71.6 °F 78% 29.92 in 5.6 mi NE 4.6 mph - N/A   Mostly Cloudy